La Porte, IN

6:21 PM CDT on May 26, 2017 (GMT -0500)
La Porte Municipal

Weather History for KPPO - August, 2013

Change the Weather History Date:

Friday, August 16, 2013

  Actual Average (KSBN) Record (KSBN)
Temperature  
Mean Temperature 63 °F -  
Max Temperature 77 °F 82 °F 98 °F (1988)
Min Temperature 50 °F 62 °F 44 °F (1929)
Degree Days  
Heating Degree Days 2    
Growing Degree Days 13 (Base 50)    
Moisture  
Dew Point 52 °F    
Average Humidity 71    
Maximum Humidity 100    
Minimum Humidity 37    
Precipitation  
Precipitation 0.00 in - - ()
Sea Level Pressure  
Sea Level Pressure 30.18 in    
Wind  
Wind Speed 1 mph (East)    
Max Wind Speed 8 mph    
Max Gust Speed -    
Visibility 9 miles    
Events      
Averages and records for this station are not official NWS values.
T = Trace of Precipitation, MM = Missing Value Source: NWS Daily Summary

Daily Weather History Graph

Daily Weather History Graph

Search for Another Location

Airport or City:

Trip Planner

Search our weather history database for the weather conditions in past years. The results will help you decide how hot, cold, wet, or windy it might be!

Date:

Astronomy

Aug. 16, 2013 Rise Set
Actual Time 5:56 AM CDT 7:44 PM CDT
Civil Twilight 5:27 AM CDT 8:14 PM CDT
Nautical Twilight 4:50 AM CDT 8:50 PM CDT
Astronomical Twilight 4:12 AM CDT 9:28 PM CDT
Moon 4:04 PM CDT (8/16) 12:57 AM CDT (8/16)
Length of Visible Light 14h 47m
Length of Day
13h 47m
Waxing Gibbous, 75% of the Moon is Illuminated
Aug 16
Waxing Gibbous
Aug 20
Full
Aug 28
Last Quarter
Sep 5
New
Sep 12
First Quarter

Hourly Weather History & Observations

Time (CDT) Temp. Dew Point Humidity Pressure Visibility Wind Dir Wind Speed Gust Speed Precip Events Conditions
12:15 AM 57.9 °F 55.0 °F 90% 30.15 in 10.0 mi Calm Calm - N/A   Scattered Clouds
12:55 AM 55.0 °F 53.4 °F 94% 30.15 in 10.0 mi Calm Calm - N/A   Clear
1:15 AM 54.1 °F 53.2 °F 97% 30.16 in 10.0 mi Calm Calm - N/A   Clear
1:35 AM 53.8 °F 53.2 °F 98% 30.16 in 10.0 mi Calm Calm - N/A   Clear
1:55 AM 54.3 °F 54.0 °F 99% 30.15 in 7.0 mi Calm Calm - N/A   Mostly Cloudy
2:35 AM 54.7 °F 54.5 °F 99% 30.15 in 7.0 mi Calm Calm - N/A   Mostly Cloudy
2:55 AM 55.4 °F 54.5 °F 97% 30.15 in 10.0 mi Calm Calm - N/A   Mostly Cloudy
3:15 AM 55.4 °F 54.5 °F 97% 30.15 in 7.0 mi Calm Calm - N/A   Overcast
3:35 AM 55.4 °F 54.7 °F 97% 30.15 in 7.0 mi Calm Calm - N/A   Mostly Cloudy
3:55 AM 54.7 °F 54.1 °F 98% 30.15 in 5.0 mi Calm Calm - N/A   Mostly Cloudy
4:15 AM 55.0 °F 54.7 °F 99% 30.16 in 10.0 mi Calm Calm - N/A   Mostly Cloudy
4:35 AM 54.3 °F 53.6 °F 97% 30.16 in 7.0 mi Calm Calm - N/A   Scattered Clouds
4:55 AM 52.9 °F 52.5 °F 99% 30.16 in 7.0 mi Calm Calm - N/A   Scattered Clouds
5:15 AM 51.8 °F 51.3 °F 98% 30.16 in 5.0 mi Calm Calm - N/A   Scattered Clouds
5:35 AM 51.8 °F 51.8 °F 100% 30.16 in 1.8 mi Calm Calm - N/A   Mist
5:55 AM 50.4 °F 50.4 °F 100% 30.16 in 2.5 mi Calm Calm - N/A   Clear
6:15 AM 50.0 °F 50.0 °F 100% 30.17 in 5.0 mi Calm Calm - N/A   Clear
6:35 AM 50.9 °F 50.9 °F 100% 30.17 in 0.8 mi Calm Calm - N/A   Mist
6:55 AM 52.7 °F 52.7 °F 100% 30.18 in 7.0 mi Calm Calm - N/A   Clear
7:15 AM 55.8 °F 55.8 °F 100% 30.18 in 5.0 mi Calm Calm - N/A   Clear
7:35 AM 58.1 °F 58.1 °F 100% 30.19 in 4.0 mi Calm Calm - N/A   Clear
7:55 AM 59.9 °F 57.9 °F 93% 30.19 in 7.0 mi Calm Calm - N/A   Clear
8:15 AM 62.1 °F 57.2 °F 84% 30.19 in 10.0 mi Calm Calm - N/A   Clear
8:35 AM 64.4 °F 57.2 °F 77% 30.19 in 10.0 mi Calm Calm - N/A   Clear
8:55 AM 65.3 °F 55.6 °F 71% 30.19 in 10.0 mi Calm Calm - N/A   Clear
9:15 AM 67.1 °F 55.0 °F 65% 30.19 in 10.0 mi ESE 3.5 mph - N/A   Clear
9:35 AM 68.0 °F 52.9 °F 58% 30.19 in 10.0 mi Calm Calm - N/A   Clear
9:55 AM 69.3 °F 52.5 °F 55% 30.19 in 10.0 mi SSE 4.6 mph - N/A   Clear
10:15 AM 69.8 °F 50.9 °F 51% 30.20 in 10.0 mi East 4.6 mph - N/A   Clear
10:35 AM 70.9 °F 50.2 °F 48% 30.20 in 10.0 mi ESE 4.6 mph - N/A   Clear
10:55 AM 71.6 °F 49.8 °F 46% 30.20 in 10.0 mi ENE 5.8 mph - N/A   Clear
11:15 AM 71.8 °F 49.5 °F 45% 30.20 in 10.0 mi East 4.6 mph - N/A   Clear
11:35 AM 72.9 °F 52.2 °F 48% 30.19 in 10.0 mi East 4.6 mph - N/A   Clear
11:55 AM 73.0 °F 50.9 °F 46% 30.20 in 10.0 mi East 3.5 mph - N/A   Clear
12:15 PM 74.1 °F 50.2 °F 43% 30.19 in 10.0 mi ENE 6.9 mph - N/A   Clear
12:35 PM 74.5 °F 46.9 °F 38% 30.19 in 10.0 mi East 8.1 mph - N/A   Clear
12:55 PM 74.5 °F 49.8 °F 42% 30.19 in 10.0 mi Calm Calm - N/A   Clear
1:15 PM 75.2 °F 47.8 °F 38% 30.19 in 10.0 mi NE 8.1 mph - N/A   Clear
1:35 PM 75.0 °F 47.7 °F 38% 30.19 in 10.0 mi North 3.5 mph - N/A   Clear
1:55 PM 74.5 °F 47.7 °F 39% 30.19 in 10.0 mi ESE 3.5 mph - N/A   Clear
2:15 PM 75.4 °F 47.7 °F 37% 30.18 in 10.0 mi ENE 3.5 mph - N/A   Scattered Clouds
2:35 PM 76.1 °F 49.5 °F 39% 30.18 in 10.0 mi East 4.6 mph - N/A   Scattered Clouds
2:55 PM 75.4 °F 49.5 °F 40% 30.18 in 10.0 mi ESE 4.6 mph - N/A   Scattered Clouds
3:15 PM 75.9 °F 47.8 °F 37% 30.17 in 10.0 mi ESE 6.9 mph - N/A   Scattered Clouds
3:35 PM 75.9 °F 49.1 °F 39% 30.17 in 10.0 mi Calm Calm - N/A   Scattered Clouds
3:55 PM 73.8 °F 50.2 °F 43% 30.17 in 10.0 mi ESE 4.6 mph - N/A   Mostly Cloudy
4:15 PM 75.6 °F 48.9 °F 39% 30.17 in 10.0 mi Calm Calm - N/A   Scattered Clouds
4:35 PM 75.9 °F 48.9 °F 38% 30.17 in 10.0 mi SSE 4.6 mph - N/A   Scattered Clouds
4:55 PM 75.9 °F 49.5 °F 39% 30.17 in 10.0 mi East 6.9 mph - N/A   Clear
5:15 PM 74.8 °F 50.0 °F 42% 30.17 in 10.0 mi Calm Calm - N/A   Clear
5:35 PM 75.4 °F 49.3 °F 40% 30.17 in 10.0 mi Calm Calm - N/A   Clear
5:55 PM 74.8 °F 51.1 °F 43% 30.17 in 10.0 mi ESE 3.5 mph - N/A   Clear
6:15 PM 71.6 °F 54.3 °F 54% 30.17 in 10.0 mi Calm Calm - N/A   Clear
6:35 PM 72.0 °F 55.8 °F 57% 30.17 in 10.0 mi Calm Calm - N/A   Scattered Clouds
6:55 PM 70.7 °F 55.6 °F 59% 30.18 in 10.0 mi Calm Calm - N/A   Clear
7:15 PM 68.9 °F 55.8 °F 63% 30.18 in 10.0 mi North 4.6 mph - N/A   Clear
7:35 PM 66.2 °F 55.4 °F 68% 30.18 in 10.0 mi Calm Calm - N/A   Clear
7:55 PM 64.2 °F 54.7 °F 71% 30.18 in 10.0 mi North 5.8 mph - N/A   Clear
8:15 PM 62.6 °F 54.0 °F 73% 30.19 in 7.0 mi NNE 4.6 mph - N/A   Clear
8:35 PM 60.4 °F 55.0 °F 82% 30.19 in 10.0 mi Calm Calm - N/A   Scattered Clouds
8:55 PM 58.6 °F 53.8 °F 84% 30.20 in 10.0 mi Calm Calm - N/A   Scattered Clouds
9:15 PM 57.4 °F 54.5 °F 90% 30.20 in 10.0 mi Calm Calm - N/A   Clear
9:35 PM 57.2 °F 54.3 °F 90% 30.20 in 10.0 mi Calm Calm - N/A   Scattered Clouds
9:55 PM 57.2 °F 53.8 °F 88% 30.21 in 10.0 mi Calm Calm - N/A   Clear
10:15 PM 56.3 °F 53.4 °F 90% 30.20 in 10.0 mi Calm Calm - N/A   Clear
10:35 PM 55.8 °F 52.5 °F 89% 30.20 in 10.0 mi Calm Calm - N/A   Scattered Clouds
10:55 PM 56.8 °F 52.7 °F 86% 30.21 in 10.0 mi Calm Calm - N/A   Scattered Clouds
11:15 PM 58.6 °F 54.1 °F 85% 30.21 in 10.0 mi Calm Calm - N/A   Scattered Clouds
11:35 PM 56.3 °F 53.1 °F 89% 30.21 in 10.0 mi Calm Calm - N/A   Clear
11:55 PM 55.0 °F 52.3 °F 91% 30.22 in 10.0 mi Calm Calm - N/A   Scattered Clouds